Tracking 18850 objects as of 22-Nov-2017
HD Live streaming from Space Station
objects crossing your sky now

FENGYUN 1C DEB

Track FENGYUN 1C DEB now!
10-day predictions


NORAD ID: 31183
Int'l Code: 1999-025BJM
Perigee: 747.0 km
Apogee: 841.1 km
Inclination: 99.1 °
Period: 100.6 minutes
Semi major axis: 7165 km
RCS: 0.0164 m2 (small)
Launch date: May 10, 1999
Source: People's Republic of China (PRC)
Launch site: Taiyaun Space Center, China (TSC)

Note: This is SATELLITE DEBRIS
aabbcc
Your satellite tracking list
Your tracking list is empty




NASA's NSSDC Master Catalog

Two Line Element Set (TLE):
1 31183U 99025BJM 17325.45313078  .00000775  00000-0  30267-3 0  9990
2 31183  99.0733 131.4109 0065623  89.7394 326.1583 14.31440709552834
Source of the keplerian elements: AFSPC